Location: Newark
(25.4800°N, 85.7200°E)
Time: 04:30:46
(UTC+00:00)

Tiros 1 despin weight - Visible Passes

Search period start: 22 August 2019 00:00
Search period end: 01 September 2019 00:00
Orbit: 594 x 642 km, 48.2° (Epoch: 20 August)

Date Brightness Start Highest point End Pass type
(mag) Time Alt. Az. Time Alt. Az. Time Alt. Az.
22 Aug ? 23:14:24 10° N 23:17:27 17° NNE 23:20:30 10° ENE visible
23 Aug ? 23:30:11 10° NNW 23:34:20 32° NE 23:38:30 10° ESE visible
24 Aug ? 22:07:03 10° N 22:08:53 12° NNE 22:10:44 10° NE visible
25 Aug ? 22:22:18 10° NNW 22:25:53 22° NE 22:29:30 10° E visible
26 Aug ? 14:04:10 10° SSW 14:07:22 34° SSE 14:07:22 34° SSE visible
26 Aug ? 22:38:18 10° NNW 22:42:41 44° NE 22:47:07 10° ESE visible
27 Aug ? 14:20:20 10° SW 14:24:44 87° NW 14:25:25 63° NE visible
27 Aug ? 21:15:48 13° N 21:17:23 15° NNE 21:20:06 10° ENE visible
27 Aug ? 22:54:44 10° NW 22:59:18 81° SW 23:03:57 10° SE visible
28 Aug ? 12:56:37 10° S 13:00:03 22° SE 13:03:29 10° ENE visible
28 Aug ? 14:37:18 10° WSW 14:41:23 37° NW 14:43:11 26° N visible
28 Aug ? 21:33:35 28° NNE 21:34:17 29° NE 21:38:17 10° E visible
28 Aug ? 23:11:42 10° WNW 23:15:49 33° SW 23:19:58 10° SSE visible
29 Aug ? 13:12:12 10° SSW 13:16:29 55° SE 13:20:48 10° NE visible
29 Aug ? 14:55:06 10° W 14:58:14 19° NW 15:00:31 13° N visible
29 Aug ? 21:51:39 55° E 21:51:39 55° E 21:55:34 10° SE visible
29 Aug ? 23:29:48 10° W 23:32:13 14° SW 23:34:37 10° SSW visible
30 Aug ? 13:28:43 10° WSW 13:33:04 60° NW 13:37:25 10° NE visible
30 Aug ? 15:14:49 10° NNW 15:15:17 10° NNW 15:15:44 10° NNW visible
30 Aug ? 22:09:48 28° SSE 22:09:48 28° SSE 22:12:05 10° SSE visible
31 Aug ? 13:46:01 10° W 13:49:47 27° NW 13:53:34 10° NNE visible
